When you browse on this site, cookies collect data to enhance your experience and personalize the content and advertising you see.
Visit our Privacy Policy to learn more. By continuing to use the site, you agree to this use of cookies and data.
  • în România
  • Lista ţărilor
  • Pe 7 zile
  • Temperatura apei
  • Hartă satelitară
  • Meteo pe hartă
  • Widget-uri
  • user-avatar
    Intrare

    Meteo pe oră la Orlando

    Astăzi, 22 Mai, Miercuri

    Timp Temperatura Precipitaţii Vânt Presiune Umiditate
    00:00 +27°C° 0 mm 3 m/s 759 mmHg 69%
    01:00 +26°C° 0 mm 3 m/s 759 mmHg 70%
    02:00 +26°C° 0 mm 2 m/s 759 mmHg 72%
    03:00 +25°C° 0 mm 2 m/s 759 mmHg 73%
    04:00 +25°C° 0 mm 2 m/s 759 mmHg 74%
    05:00 +25°C° 0 mm 1 m/s 759 mmHg 73%
    06:00 +26°C° 0 mm 1 m/s 760 mmHg 72%
    07:00 +26°C° 0 mm 1 m/s 760 mmHg 71%
    08:00 +28°C° 0 mm 1 m/s 760 mmHg 63%
    09:00 +30°C° 0 mm 2 m/s 761 mmHg 55%
    10:00 +31°C° 0 mm 2 m/s 761 mmHg 47%
    11:00 +34°C° 0 mm 3 m/s 761 mmHg 43%
    12:00 +35°C° 0 mm 3 m/s 761 mmHg 39%
    13:00 +36°C° 0 mm 4 m/s 761 mmHg 35%
    14:00 +35°C° 0 mm 4 m/s 761 mmHg 37%
    15:00 +35°C° 0 mm 5 m/s 761 mmHg 38%
    16:00 +34°C° 0 mm 6 m/s 760 mmHg 40%
    17:00 +33°C° 0 mm 5 m/s 761 mmHg 47%
    18:00 +30°C° 0 mm 5 m/s 761 mmHg 53%
    19:00 +28°C° 0 mm 4 m/s 761 mmHg 60%
    20:00 +28°C° 0 mm 4 m/s 762 mmHg 64%
    21:00 +27°C° 0 mm 3 m/s 762 mmHg 67%
    22:00 +26°C° 0 mm 3 m/s 763 mmHg 71%
    23:00 +26°C° 0 mm 3 m/s 763 mmHg 72%

    Mâine, 23 Mai, Joi

    Timp Temperatura Precipitaţii Vânt Presiune Umiditate
    00:00 +26°C° 0 mm 3 m/s 762 mmHg 74%
    01:00 +26°C° 0 mm 3 m/s 762 mmHg 75%
    02:00 +26°C° 0 mm 2 m/s 762 mmHg 77%
    03:00 +26°C° 0 mm 2 m/s 762 mmHg 79%
    04:00 +25°C° 0 mm 2 m/s 762 mmHg 80%
    05:00 +26°C° 0 mm 2 m/s 762 mmHg 79%
    06:00 +26°C° 0 mm 3 m/s 762 mmHg 78%
    07:00 +27°C° 0 mm 3 m/s 762 mmHg 76%
    08:00 +28°C° 0 mm 3 m/s 763 mmHg 69%
    09:00 +30°C° 0 mm 4 m/s 763 mmHg 62%
    10:00 +32°C° 0 mm 4 m/s 763 mmHg 55%
    11:00 +33°C° 0 mm 5 m/s 763 mmHg 51%
    12:00 +34°C° 0 mm 5 m/s 763 mmHg 48%
    13:00 +34°C° 0 mm 6 m/s 763 mmHg 44%
    14:00 +34°C° 0 mm 6 m/s 762 mmHg 46%
    15:00 +33°C° 0 mm 6 m/s 762 mmHg 48%
    16:00 +33°C° 0 mm 6 m/s 762 mmHg 50%
    17:00 +30°C° 0 mm 6 m/s 762 mmHg 55%
    18:00 +29°C° 0 mm 5 m/s 762 mmHg 60%
    19:00 +28°C° 0 mm 4 m/s 762 mmHg 65%
    20:00 +27°C° 0 mm 4 m/s 762 mmHg 68%
    21:00 +26°C° 0 mm 4 m/s 763 mmHg 70%
    22:00 +25°C° 0 mm 3 m/s 763 mmHg 73%
    23:00 +25°C° 0 mm 3 m/s 763 mmHg 75%

    Poimâine, 24 Mai, Vineri

    Timp Temperatura Precipitaţii Vânt Presiune Umiditate
    00:00 +25°C° 0 mm 3 m/s 763 mmHg 76%
    01:00 +24°C° 0 mm 2 m/s 762 mmHg 78%
    02:00 +24°C° 0 mm 2 m/s 762 mmHg 80%
    03:00 +24°C° 0 mm 2 m/s 762 mmHg 81%
    04:00 +24°C° 0 mm 2 m/s 761 mmHg 82%
    05:00 +24°C° 0 mm 2 m/s 762 mmHg 80%
    06:00 +25°C° 0 mm 3 m/s 762 mmHg 77%
    07:00 +25°C° 0 mm 3 m/s 762 mmHg 74%
    08:00 +27°C° 0 mm 3 m/s 762 mmHg 66%
    09:00 +29°C° 0 mm 3 m/s 762 mmHg 59%
    10:00 +32°C° 0 mm 4 m/s 762 mmHg 51%
    11:00 +33°C° 0 mm 4 m/s 762 mmHg 47%
    12:00 +34°C° 0 mm 4 m/s 762 mmHg 42%
    13:00 +35°C° 0 mm 4 m/s 762 mmHg 38%
    14:00 +35°C° 0 mm 5 m/s 761 mmHg 39%
    15:00 +35°C° 0 mm 5 m/s 761 mmHg 39%
    16:00 +34°C° 0 mm 5 m/s 760 mmHg 40%
    17:00 +33°C° 0 mm 5 m/s 761 mmHg 47%
    18:00 +30°C° 0 mm 4 m/s 761 mmHg 53%
    19:00 +29°C° 0 mm 4 m/s 761 mmHg 59%
    20:00 +28°C° 0 mm 3 m/s 761 mmHg 63%
    21:00 +27°C° 0 mm 3 m/s 762 mmHg 66%
    22:00 +26°C° 0 mm 3 m/s 762 mmHg 70%
    23:00 +26°C° 0 mm 2 m/s 762 mmHg 72%

    25 Mai, Sâmbătă

    Timp Temperatura Precipitaţii Vânt Presiune Umiditate
    00:00 +26°C° 0 mm 2 m/s 762 mmHg 75%
    01:00 +25°C° 0 mm 2 m/s 762 mmHg 77%
    02:00 +25°C° 0 mm 2 m/s 761 mmHg 79%
    03:00 +25°C° 0 mm 1 m/s 761 mmHg 80%
    04:00 +25°C° 0 mm 1 m/s 761 mmHg 82%
    05:00 +25°C° 0 mm 1 m/s 761 mmHg 80%
    06:00 +26°C° 0 mm 1 m/s 762 mmHg 78%
    07:00 +26°C° 0 mm 1 m/s 762 mmHg 77%
    08:00 +28°C° 0 mm 2 m/s 762 mmHg 68%
    09:00 +30°C° 0 mm 2 m/s 762 mmHg 60%
    10:00 +33°C° 0 mm 3 m/s 762 mmHg 52%
    11:00 +34°C° 0 mm 4 m/s 762 mmHg 48%
    12:00 +35°C° 0 mm 4 m/s 762 mmHg 44%
    13:00 +37°C° 0 mm 5 m/s 761 mmHg 40%
    14:00 +36°C° 0 mm 5 m/s 761 mmHg 41%
    15:00 +36°C° 0 mm 5 m/s 761 mmHg 41%
    16:00 +35°C° 0 mm 6 m/s 761 mmHg 42%
    17:00 +34°C° 0 mm 5 m/s 761 mmHg 49%
    18:00 +32°C° 0 mm 4 m/s 761 mmHg 56%
    19:00 +30°C° 0 mm 4 m/s 762 mmHg 62%
    20:00 +29°C° 0 mm 3 m/s 762 mmHg 67%
    21:00 +28°C° 0 mm 3 m/s 762 mmHg 72%
    22:00 +27°C° 0 mm 2 m/s 763 mmHg 77%
    23:00 +26°C° 0 mm 2 m/s 762 mmHg 79%

    26 Mai, Duminică

    Timp Temperatura Precipitaţii Vânt Presiune Umiditate
    00:00 +26°C° 0 mm 2 m/s 762 mmHg 81%
    01:00 +26°C° 0 mm 2 m/s 762 mmHg 84%
    02:00 +25°C° 0 mm 1 m/s 762 mmHg 85%
    03:00 +25°C° 0 mm 1 m/s 762 mmHg 87%
    04:00 +25°C° 0 mm 1 m/s 762 mmHg 89%
    05:00 +26°C° 0 mm 1 m/s 762 mmHg 86%
    06:00 +26°C° 0 mm 1 m/s 762 mmHg 83%
    07:00 +27°C° 0 mm 1 m/s 763 mmHg 81%
    08:00 +29°C° 0 mm 1 m/s 763 mmHg 71%
    09:00 +31°C° 0 mm 1 m/s 763 mmHg 62%
    10:00 +33°C° 0 mm 1 m/s 763 mmHg 52%
    11:00 +36°C° 0 mm 2 m/s 762 mmHg 47%
    12:00 +37°C° 0 mm 2 m/s 762 mmHg 41%
    13:00 +38°C° 0 mm 3 m/s 762 mmHg 35%
    14:00 +38°C° 0 mm 3 m/s 761 mmHg 35%
    15:00 +38°C° 0 mm 3 m/s 761 mmHg 35%
    16:00 +38°C° 0 mm 4 m/s 760 mmHg 35%
    17:00 +36°C° 0 mm 4 m/s 761 mmHg 42%
    18:00 +35°C° 0 mm 4 m/s 761 mmHg 48%
    19:00 +33°C° 0 mm 4 m/s 761 mmHg 55%
    20:00 +32°C° 0 mm 4 m/s 761 mmHg 61%
    21:00 +30°C° 0 mm 4 m/s 761 mmHg 66%
    22:00 +28°C° 0 mm 3 m/s 761 mmHg 72%
    23:00 +28°C° 0 mm 3 m/s 761 mmHg 75%

    27 Mai, Luni

    Timp Temperatura Precipitaţii Vânt Presiune Umiditate
    00:00 +28°C° 0 mm 2 m/s 761 mmHg 77%
    01:00 +27°C° 0 mm 2 m/s 761 mmHg 80%
    02:00 +27°C° 0 mm 1 m/s 760 mmHg 81%
    03:00 +27°C° 0 mm 1 m/s 760 mmHg 82%
    04:00 +26°C° 0 mm 1 m/s 760 mmHg 83%
    05:00 +27°C° 0 mm 1 m/s 760 mmHg 81%
    06:00 +27°C° 0 mm 1 m/s 760 mmHg 79%
    07:00 +28°C° 0 mm 1 m/s 761 mmHg 77%
    08:00 +30°C° 0 mm 1 m/s 761 mmHg 67%
    09:00 +32°C° 0 mm 1 m/s 761 mmHg 57%
    10:00 +34°C° 0 mm 1 m/s 760 mmHg 47%
    11:00 +36°C° 0 mm 1 m/s 760 mmHg 42%
    12:00 +39°C° 0 mm 1 m/s 759 mmHg 38%
    13:00 +38°C° 0 mm 0 m/s 759 mmHg 33%
    14:00 +37°C° 0 mm 0 m/s 758 mmHg 34%
    15:00 +39°C° 0 mm 1 m/s 758 mmHg 35%
    16:00 +37°C° 0 mm 1 m/s 757 mmHg 36%
    17:00 +36°C° 0 mm 1 m/s 757 mmHg 40%
    18:00 +36°C° 0 mm 2 m/s 757 mmHg 43%
    19:00 +35°C° 0 mm 2 m/s 757 mmHg 46%
    20:00 +34°C° 0 mm 2 m/s 758 mmHg 51%
    21:00 +32°C° 0 mm 2 m/s 758 mmHg 55%
    22:00 +31°C° 0 mm 2 m/s 758 mmHg 59%
    23:00 +30°C° 0 mm 2 m/s 758 mmHg 62%
    Arată mai mult